• In Schweiz
  • Länderverzeichnis
  • Für 7 Tage
  • Wassertemperatur
  • Satellitenkarten
  • Wetterkarte
  • Widgets
  • user-avatar
    Anmelden

    Stündliche Wetter Sazovo

    Heute, 19 Juli, Donnerstag

    Zeit Temperatur Niederschläge Wind Luftdruck Luftfeuchtigkeit
    00:00 +18°C° 0,2 mm 3 m/S 745 mmHg 95%
    01:00 +18°C° 0,2 mm 3 m/S 745 mmHg 95%
    02:00 +18°C° 0 mm 3 m/S 745 mmHg 95%
    03:00 +17°C° 0 mm 3 m/S 745 mmHg 95%
    04:00 +17°C° 0 mm 3 m/S 746 mmHg 95%
    05:00 +18°C° 0 mm 3 m/S 746 mmHg 93%
    06:00 +19°C° 0 mm 3 m/S 746 mmHg 92%
    07:00 +20°C° 0 mm 4 m/S 746 mmHg 91%
    08:00 +21°C° 0,2 mm 4 m/S 746 mmHg 88%
    09:00 +22°C° 0,2 mm 4 m/S 746 mmHg 85%
    10:00 +23°C° 0 mm 4 m/S 746 mmHg 82%
    11:00 +25°C° 1 mm 4 m/S 746 mmHg 80%
    12:00 +25°C° 1 mm 4 m/S 746 mmHg 78%
    13:00 +26°C° 1 mm 4 m/S 746 mmHg 76%
    14:00 +26°C° 0,5 mm 4 m/S 746 mmHg 76%
    15:00 +26°C° 0,5 mm 4 m/S 746 mmHg 76%
    16:00 +26°C° 0,5 mm 4 m/S 747 mmHg 75%
    17:00 +26°C° 0,2 mm 4 m/S 747 mmHg 78%
    18:00 +25°C° 0,2 mm 4 m/S 747 mmHg 81%
    19:00 +24°C° 0,2 mm 3 m/S 747 mmHg 84%
    20:00 +22°C° 0 mm 3 m/S 747 mmHg 87%
    21:00 +21°C° 0 mm 3 m/S 747 mmHg 90%
    22:00 +19°C° 0 mm 3 m/S 747 mmHg 92%
    23:00 +19°C° 0 mm 3 m/S 747 mmHg 94%

    Morgen, 20 Juli, Freitag

    Zeit Temperatur Niederschläge Wind Luftdruck Luftfeuchtigkeit
    00:00 +18°C° 0 mm 3 m/S 747 mmHg 95%
    01:00 +18°C° 0 mm 3 m/S 747 mmHg 96%
    02:00 +17°C° 0 mm 3 m/S 747 mmHg 96%
    03:00 +17°C° 0 mm 3 m/S 747 mmHg 97%
    04:00 +17°C° 0 mm 3 m/S 747 mmHg 97%
    05:00 +18°C° 0,2 mm 3 m/S 747 mmHg 96%
    06:00 +19°C° 0,2 mm 3 m/S 747 mmHg 94%
    07:00 +19°C° 0,2 mm 3 m/S 748 mmHg 93%
    08:00 +20°C° 0,2 mm 3 m/S 748 mmHg 90%
    09:00 +21°C° 0,2 mm 4 m/S 748 mmHg 88%
    10:00 +23°C° 0,2 mm 4 m/S 748 mmHg 86%
    11:00 +23°C° 0,6 mm 4 m/S 748 mmHg 83%
    12:00 +25°C° 0,6 mm 4 m/S 748 mmHg 80%
    13:00 +26°C° 0,6 mm 4 m/S 748 mmHg 77%
    14:00 +26°C° 0,9 mm 5 m/S 748 mmHg 78%
    15:00 +26°C° 0,9 mm 5 m/S 748 mmHg 79%
    16:00 +26°C° 0,9 mm 5 m/S 748 mmHg 79%
    17:00 +25°C° 0,2 mm 5 m/S 748 mmHg 81%
    18:00 +23°C° 0,2 mm 5 m/S 748 mmHg 83%
    19:00 +22°C° 0,2 mm 5 m/S 749 mmHg 85%
    20:00 +22°C° 0 mm 5 m/S 749 mmHg 86%
    21:00 +21°C° 0 mm 5 m/S 749 mmHg 87%
    22:00 +20°C° 0 mm 5 m/S 749 mmHg 88%
    23:00 +20°C° 0 mm 5 m/S 749 mmHg 88%

    übermorgen, 21 Juli, Samstag

    Zeit Temperatur Niederschläge Wind Luftdruck Luftfeuchtigkeit
    00:00 +20°C° 0 mm 5 m/S 749 mmHg 88%
    01:00 +19°C° 0 mm 6 m/S 749 mmHg 89%
    02:00 +19°C° 0,1 mm 5 m/S 749 mmHg 89%
    03:00 +19°C° 0,1 mm 5 m/S 750 mmHg 90%
    04:00 +19°C° 0,1 mm 5 m/S 750 mmHg 91%
    05:00 +19°C° 0 mm 6 m/S 750 mmHg 90%
    06:00 +19°C° 0 mm 6 m/S 750 mmHg 89%
    07:00 +20°C° 0 mm 6 m/S 750 mmHg 88%
    08:00 +21°C° 0 mm 6 m/S 751 mmHg 84%
    09:00 +22°C° 0 mm 7 m/S 751 mmHg 80%
    10:00 +22°C° 0 mm 7 m/S 751 mmHg 76%
    11:00 +23°C° 0 mm 7 m/S 751 mmHg 73%
    12:00 +24°C° 0 mm 7 m/S 751 mmHg 69%
    13:00 +24°C° 0 mm 7 m/S 751 mmHg 66%
    14:00 +24°C° 0 mm 7 m/S 751 mmHg 66%
    15:00 +24°C° 0 mm 6 m/S 751 mmHg 66%
    16:00 +24°C° 0 mm 6 m/S 751 mmHg 66%
    17:00 +25°C° 0 mm 5 m/S 752 mmHg 69%
    18:00 +23°C° 0 mm 5 m/S 752 mmHg 71%
    19:00 +22°C° 0 mm 4 m/S 752 mmHg 74%
    20:00 +20°C° 0 mm 5 m/S 752 mmHg 72%
    21:00 +19°C° 0 mm 5 m/S 752 mmHg 70%
    22:00 +17°C° 0 mm 5 m/S 753 mmHg 68%
    23:00 +16°C° 0 mm 5 m/S 753 mmHg 69%

    22 Juli, Sonntag

    Zeit Temperatur Niederschläge Wind Luftdruck Luftfeuchtigkeit
    00:00 +16°C° 0 mm 5 m/S 753 mmHg 69%
    01:00 +15°C° 0 mm 5 m/S 753 mmHg 69%
    02:00 +14°C° 0 mm 5 m/S 753 mmHg 70%
    03:00 +14°C° 0 mm 5 m/S 753 mmHg 72%
    04:00 +13°C° 0 mm 5 m/S 753 mmHg 73%
    05:00 +13°C° 0 mm 5 m/S 753 mmHg 74%
    06:00 +14°C° 0 mm 5 m/S 753 mmHg 75%
    07:00 +14°C° 0 mm 5 m/S 753 mmHg 77%
    08:00 +16°C° 0 mm 6 m/S 753 mmHg 74%
    09:00 +17°C° 0 mm 6 m/S 753 mmHg 70%
    10:00 +20°C° 0 mm 7 m/S 753 mmHg 67%
    11:00 +21°C° 0 mm 6 m/S 753 mmHg 64%
    12:00 +21°C° 0 mm 6 m/S 753 mmHg 60%
    13:00 +22°C° 0 mm 6 m/S 753 mmHg 57%
    14:00 +22°C° 0 mm 6 m/S 753 mmHg 57%
    15:00 +23°C° 0 mm 5 m/S 753 mmHg 57%
    16:00 +23°C° 0 mm 5 m/S 753 mmHg 58%
    17:00 +22°C° 0 mm 5 m/S 753 mmHg 62%
    18:00 +21°C° 0 mm 4 m/S 753 mmHg 66%
    19:00 +20°C° 0 mm 4 m/S 753 mmHg 71%
    20:00 +19°C° 0 mm 4 m/S 753 mmHg 70%
    21:00 +17°C° 0 mm 4 m/S 754 mmHg 70%
    22:00 +15°C° 0 mm 4 m/S 754 mmHg 70%
    23:00 +14°C° 0 mm 4 m/S 754 mmHg 70%

    23 Juli, Montag

    Zeit Temperatur Niederschläge Wind Luftdruck Luftfeuchtigkeit
    00:00 +13°C° 0 mm 4 m/S 754 mmHg 71%
    01:00 +12°C° 0 mm 4 m/S 754 mmHg 71%
    02:00 +12°C° 0 mm 3 m/S 755 mmHg 74%
    03:00 +11°C° 0 mm 3 m/S 755 mmHg 77%
    04:00 +10°C° 0 mm 3 m/S 755 mmHg 79%
    05:00 +11°C° 0 mm 3 m/S 755 mmHg 78%
    06:00 +12°C° 0 mm 4 m/S 755 mmHg 77%
    07:00 +13°C° 0 mm 4 m/S 755 mmHg 76%
    08:00 +15°C° 0 mm 4 m/S 755 mmHg 71%
    09:00 +18°C° 0 mm 4 m/S 755 mmHg 66%
    10:00 +19°C° 0 mm 4 m/S 755 mmHg 61%
    11:00 +20°C° 0 mm 4 m/S 755 mmHg 59%
    12:00 +21°C° 0 mm 4 m/S 755 mmHg 57%
    13:00 +22°C° 0 mm 4 m/S 755 mmHg 55%
    14:00 +22°C° 0 mm 4 m/S 755 mmHg 55%
    15:00 +23°C° 0 mm 4 m/S 755 mmHg 55%
    16:00 +23°C° 0 mm 4 m/S 754 mmHg 55%
    17:00 +22°C° 0 mm 3 m/S 754 mmHg 60%
    18:00 +23°C° 0 mm 2 m/S 754 mmHg 65%
    19:00 +21°C° 0 mm 2 m/S 754 mmHg 70%
    20:00 +20°C° 0 mm 2 m/S 754 mmHg 72%
    21:00 +18°C° 0 mm 2 m/S 755 mmHg 74%
    22:00 +17°C° 0 mm 2 m/S 755 mmHg 77%
    23:00 +16°C° 0 mm 2 m/S 755 mmHg 78%

    24 Juli, Dienstag

    Zeit Temperatur Niederschläge Wind Luftdruck Luftfeuchtigkeit
    00:00 +16°C° 0 mm 2 m/S 755 mmHg 79%
    01:00 +15°C° 0 mm 2 m/S 755 mmHg 81%
    02:00 +15°C° 0 mm 1 m/S 755 mmHg 82%
    03:00 +15°C° 0 mm 1 m/S 755 mmHg 84%
    04:00 +14°C° 0 mm 1 m/S 756 mmHg 86%
    05:00 +16°C° 0 mm 1 m/S 756 mmHg 83%
    06:00 +18°C° 0 mm 1 m/S 756 mmHg 80%
    07:00 +20°C° 0 mm 1 m/S 756 mmHg 77%
    08:00 +21°C° 0 mm 1 m/S 756 mmHg 73%
    09:00 +23°C° 0 mm 1 m/S 756 mmHg 68%
    10:00 +25°C° 0 mm 1 m/S 756 mmHg 64%
    11:00 +26°C° 0 mm 1 m/S 756 mmHg 60%
    12:00 +27°C° 0 mm 2 m/S 756 mmHg 57%
    13:00 +28°C° 0 mm 2 m/S 756 mmHg 54%
    14:00 +28°C° 0 mm 2 m/S 756 mmHg 54%
    15:00 +28°C° 0 mm 2 m/S 756 mmHg 54%
    16:00 +28°C° 0 mm 2 m/S 756 mmHg 55%
    17:00 +28°C° 0 mm 2 m/S 756 mmHg 59%
    18:00 +27°C° 0 mm 2 m/S 756 mmHg 64%
    19:00 +26°C° 0 mm 1 m/S 756 mmHg 69%
    20:00 +24°C° 0 mm 1 m/S 756 mmHg 71%
    21:00 +23°C° 0 mm 1 m/S 756 mmHg 74%
    22:00 +21°C° 0 mm 1 m/S 756 mmHg 76%
    23:00 +21°C° 0 mm 1 m/S 756 mmHg 77%
    Mehr zeigen